EW0603 Weather Reports


Display with metric or nautical units.
time (UTC)temp
F
wind
direction
speed
MPH
gust
MPH
rain 1hr
in
rain 24hr
in
rain mn
in
humidity
%
barometer
mb
20260903233307 73 148 0.0 0.0 0.00 1.49 1.50 88 1010.7
20260903232941 73 150 0.0 0.0 0.00 1.49 1.50 88 1010.7
20260903232834 73 150 0.0 0.0 0.00 1.49 1.50 88 1010.7
20260903232728 73 150 0.0 0.0 0.00 1.49 1.50 88 1010.7
20260903232402 73 150 0.0 0.0 0.00 1.49 1.50 89 1010.9
20260903232258 73 150 0.0 0.0 0.00 1.49 1.50 89 1010.9
20260903232149 73 150 0.0 0.0 0.00 1.49 1.50 89 1010.9
20260903232044 73 150 0.0 0.0 0.00 1.49 1.50 90 1010.8
20260903231942 73 150 0.0 0.0 0.00 1.49 1.50 89 1010.9
20260903231838 73 150 0.0 0.0 0.00 1.49 1.50 89 1010.8
20260903231733 73 150 0.0 0.0 0.00 1.49 1.50 89 1010.8
20260903231629 73 150 0.0 0.0 0.00 1.49 1.50 89 1010.7
20260903231303 73 104 0.0 0.0 0.00 1.49 1.50 90 1010.6
20260903231156 73 90 0.0 0.0 0.00 1.49 1.50 90 1010.5
20260903231048 73 90 0.0 0.0 0.00 1.49 1.50 90 1010.5
20260903230943 73 67 0.0 0.0 0.00 1.49 1.50 90 1010.5
20260903230619 73 118 0.0 0.0 0.00 1.49 1.50 90 1010.6
20260903230513 73 130 0.0 0.0 0.00 1.49 1.50 90 1010.6
20260903230409 73 119 0.0 0.0 0.00 1.49 1.50 90 1010.6
20260903230301 73 120 0.0 0.0 0.00 1.49 1.50 89 1010.8
20260903230155 73 118 0.0 0.0 0.00 1.49 1.50 90 1010.7
20260903230049 73 140 0.0 0.0 0.00 1.49 1.50 90 1010.7
20260903225727 72 140 0.0 0.0 0.00 1.49 1.50 90 1010.9
20260903225622 72 140 0.0 0.0 0.00 1.49 1.50 90 1010.9
20260903225515 72 140 0.0 0.0 0.00 1.49 1.50 90 1010.9
20260903225148 72 140 0.0 0.0 0.00 1.49 1.50 89 1011.0
20260903225043 72 134 0.0 0.0 0.00 1.49 1.50 89 1011.0
20260903224719 72 117 0.0 0.0 0.00 1.49 1.50 89 1011.0
20260903224616 72 117 0.0 0.0 0.00 1.49 1.50 89 1011.1
20260903224249 72 105 0.0 0.0 0.00 1.49 1.50 89 1011.2
20260903224145 72 105 0.0 0.0 0.00 1.49 1.50 89 1011.2
20260903223824 72 105 0.0 0.0 0.00 1.49 1.50 88 1011.3
20260903223717 72 105 0.0 0.0 0.00 1.49 1.50 88 1011.4
20260903223354 72 90 0.0 0.0 0.00 1.49 1.50 88 1011.6
20260903223251 72 90 0.0 0.0 0.00 1.49 1.50 88 1011.6
20260903223144 73 90 0.0 0.0 0.00 1.49 1.50 88 1011.6
20260903223036 73 90 0.0 0.0 0.00 1.49 1.50 88 1011.6
20260903222930 73 90 0.0 0.0 0.00 1.49 1.50 88 1011.6
20260903222823 73 90 0.0 0.0 0.00 1.49 1.50 88 1011.5
20260903222720 73 90 0.0 0.0 0.00 1.49 1.50 87 1011.6
20260903222616 73 90 0.0 0.0 0.00 1.49 1.50 87 1011.6
20260903222513 73 90 0.0 0.0 0.00 1.49 1.50 87 1011.7
20260903222407 73 90 0.0 0.0 0.00 1.49 1.50 87 1011.7
20260903222306 73 90 0.0 0.0 0.00 1.49 1.50 87 1011.7
20260903222158 73 90 0.0 0.0 0.00 1.49 1.50 87 1011.6
20260903222055 73 90 0.0 0.0 0.00 1.49 1.50 87 1011.6
20260903221952 73 90 0.0 0.0 0.00 1.49 1.50 87 1011.6
20260903221849 73 90 0.0 0.0 0.00 1.49 1.50 87 1011.5
20260903221741 73 90 0.0 0.0 0.00 1.49 1.50 86 1011.5
20260903221634 73 90 0.0 0.0 0.00 1.49 1.50 86 1011.4
20260903221530 73 90 0.0 0.0 0.00 1.49 1.50 87 1011.4
20260903221423 73 90 0.0 0.0 0.00 1.49 1.50 87 1011.4
20260903221320 73 90 0.0 0.0 0.00 1.49 1.50 87 1011.4
20260903221215 73 90 0.0 0.0 0.00 1.49 1.50 86 1011.3
20260903221110 73 90 0.0 0.0 0.00 1.49 1.50 86 1011.3
20260903221007 73 94 0.0 0.0 0.00 1.49 1.50 86 1011.4
20260903220904 73 59 0.0 0.0 0.00 1.49 1.50 86 1011.5
20260903220802 73 54 0.0 0.0 0.00 1.49 1.50 86 1011.6
20260903220438 73 32 0.0 0.0 0.00 1.49 1.50 86 1011.6
20260903220112 73 32 0.0 0.0 0.00 1.49 1.50 87 1011.6
20260903220007 73 22 0.0 0.0 0.00 1.49 1.50 87 1011.6
20260903215904 73 22 0.0 0.0 0.00 1.49 1.50 87 1011.6
20260903215539 73 20 0.0 0.0 0.00 1.49 1.50 86 1011.6
20260903215432 73 20 0.0 0.0 0.00 1.49 1.50 86 1011.6
20260903215325 73 20 0.0 0.0 0.00 1.49 1.50 86 1011.6
20260903215222 73 20 0.0 0.0 0.00 1.49 1.50 87 1011.6
20260903215115 73 20 0.0 0.0 0.00 1.49 1.50 86 1011.7
20260903215012 73 20 0.0 0.0 0.00 1.49 1.50 87 1011.7
20260903214909 73 20 0.0 0.0 0.00 1.49 1.50 87 1011.8
20260903214544 73 11 0.0 0.0 0.00 1.49 1.50 88 1011.7
20260903214438 73 15 0.0 0.0 0.00 1.49 1.50 87 1011.7
20260903214331 73 15 0.0 0.0 0.00 1.49 1.50 87 1011.7
20260903214225 73 22 0.0 0.0 0.00 1.49 1.50 87 1011.7
20260903213635 73 23 0.0 0.0 0.00 1.49 1.50 87 1011.7
20260903213528 73 23 0.0 0.0 0.00 1.49 1.50 87 1011.8
20260903213422 73 23 0.0 0.0 0.00 1.49 1.50 87 1011.8
20260903213317 73 23 0.0 0.0 0.00 1.49 1.50 87 1011.8
20260903213214 73 23 0.0 0.0 0.00 1.49 1.50 87 1011.9
20260903213110 73 23 0.0 0.0 0.00 1.49 1.50 87 1011.8
20260903213007 73 23 0.0 0.0 0.00 1.49 1.50 87 1011.8
20260903212902 73 23 0.0 0.0 0.00 1.49 1.50 87 1011.9
20260903212754 73 23 0.0 0.0 0.00 1.49 1.50 87 1011.9
20260903212652 73 23 0.0 0.0 0.00 1.49 1.50 87 1011.9
20260903212550 73 23 0.0 0.0 0.00 1.49 1.50 87 1011.8
20260903212225 73 23 0.0 0.0 0.00 1.49 1.50 87 1011.8
20260903212118 73 22 0.0 0.0 0.00 1.49 1.50 87 1011.8
20260903212011 73 22 0.0 0.0 0.00 1.49 1.50 87 1011.9
20260903211904 73 22 0.0 0.0 0.00 1.49 1.50 87 1011.9
20260903211535 73 39 0.0 0.0 0.00 1.49 1.50 87 1011.7
20260903211429 73 39 0.0 0.0 0.00 1.49 1.50 87 1011.7
20260903211326 73 39 0.0 0.0 0.00 1.49 1.50 87 1011.7
20260903211221 73 340 0.0 0.0 0.00 1.49 1.50 88 1011.7
20260903211114 73 340 0.0 0.0 0.00 1.49 1.50 88 1011.7
20260903211012 73 22 0.0 0.0 0.00 1.49 1.50 87 1011.7
20260903210908 73 26 0.0 0.0 0.00 1.49 1.50 88 1011.7
20260903210803 73 27 0.0 0.0 0.00 1.49 1.50 88 1011.7
20260903210700 73 24 0.0 0.0 0.00 1.49 1.50 88 1011.7
20260903210558 73 44 0.0 0.0 0.00 1.49 1.50 88 1011.7
20260903210455 73 61 0.0 0.0 0.00 1.49 1.50 88 1011.7
20260903210351 73 61 0.0 0.0 0.00 1.49 1.50 88 1011.6
20260903210247 73 60 0.0 0.0 0.00 1.49 1.50 88 1011.6
20260903210140 73 46 0.0 0.0 0.00 1.49 1.50 88 1011.7
20260903210038 73 46 0.0 0.0 0.00 1.49 1.50 89 1011.7
20260903205932 73 49 0.0 0.0 0.00 1.49 1.50 89 1011.7
20260903205825 73 49 0.0 0.0 0.00 1.49 1.50 89 1011.7
20260903205722 73 49 0.0 0.0 0.00 1.49 1.50 89 1011.9
20260903205620 73 49 0.0 0.0 0.00 1.49 1.50 89 1011.8
20260903205518 73 49 0.0 0.0 0.00 1.49 1.50 89 1011.8
20260903205412 73 48 0.0 0.0 0.00 1.49 1.50 89 1011.8
20260903205311 73 44 0.0 0.0 0.00 1.49 1.50 89 1011.9
20260903205205 73 43 0.0 0.0 0.00 1.49 1.50 90 1011.8
20260903205101 73 43 0.0 0.0 0.00 1.49 1.50 90 1011.9
20260903204956 73 43 0.0 0.0 0.00 1.49 1.50 90 1011.9
20260903204848 72 43 0.0 0.0 0.00 1.49 1.50 90 1011.9
20260903204519 72 44 0.0 0.0 0.00 1.49 1.50 90 1011.9
20260903204414 72 43 0.0 0.0 0.00 1.49 1.50 90 1012.0
20260903204049 72 20 0.0 6.0 0.00 1.49 1.50 90 1012.1
20260903203945 72 20 0.0 6.0 0.00 1.49 1.50 90 1012.1
20260903203843 72 19 0.0 6.0 0.00 1.49 1.50 90 1012.1
20260903203735 72 35 0.0 4.0 0.00 1.49 1.50 90 1012.2
20260903203633 72 15 0.0 0.0 0.00 1.49 1.50 90 1012.2
20260903203529 72 15 0.0 0.0 0.00 1.49 1.50 90 1012.2
20260903203427 72 15 0.0 0.0 0.00 1.49 1.50 90 1012.2
20260903203321 72 15 0.0 0.0 0.00 1.49 1.50 90 1012.3
20260903202956 71 38 1.0 6.0 0.00 1.49 1.50 91 1012.2
20260903202851 71 46 1.0 0.0 0.04 1.49 1.50 90 1012.1
20260903202744 71 47 1.0 0.0 0.04 1.49 1.50 91 1012.1
20260903202641 71 47 1.0 0.0 0.04 1.49 1.50 90 1012.2
20260903202535 71 27 1.0 0.0 0.04 1.49 1.50 90 1012.1
20260903202206 71 20 1.0 12.0 0.06 1.49 1.50 90 1011.9
20260903201840 71 76 2.0 0.0 0.09 1.49 1.50 90 1012.1
20260903201734 71 24 2.0 0.0 0.10 1.49 1.50 90 1012.1
20260903201412 71 17 4.0 14.0 0.28 1.49 1.50 90 1012.2
20260903201308 71 9 4.0 14.0 0.65 1.47 1.50 90 1012.3
20260903201206 71 24 5.0 14.0 0.85 1.45 1.49 90 1012.4
20260903201059 71 339 5.0 14.0 3.49 1.40 1.46 89 1012.4
20260903200952 71 329 5.0 21.0 3.40 1.37 1.40 89 1012.5
20260903200849 71 9 5.0 21.0 3.37 1.33 1.37 89 1012.3
20260903200743 71 355 5.0 21.0 2.48 1.28 1.32 89 1012.2
20260903200636 71 9 5.0 21.0 2.73 1.25 1.29 89 1012.1
20260903200529 71 0 5.0 21.0 3.67 1.16 1.25 89 1012.2
20260903200426 72 323 6.0 21.0 3.15 1.11 1.19 89 1012.1
20260903200324 72 342 6.0 21.0 2.78 1.06 1.15 88 1012.0
20260903200000 72 295 6.0 21.0 2.46 0.92 0.99 87 1012.4
20260903195853 72 320 6.0 21.0 5.49 0.85 0.94 88 1012.6
20260903195532 73 11 6.0 21.0 2.46 0.71 0.79 87 1012.4
20260903195207 74 355 5.0 21.0 7.58 0.46 0.55 85 1011.9
20260903195103 74 350 5.0 21.0 4.47 0.40 0.50 85 1011.8
20260903194959 75 327 4.0 19.0 5.65 0.32 0.43 85 1011.7
20260903194856 75 25 4.0 15.0 4.54 0.29 0.35 84 1011.7
20260903194749 75 9 4.0 10.0 1.08 0.27 0.31 83 1011.3
20260903194645 75 319 3.0 10.0 0.13 0.26 0.27 83 1011.1
20260903194321 76 266 3.0 14.0 0.35 0.26 0.27 81 1009.9
20260903193957 77 323 2.0 14.0 0.21 0.21 0.21 79 1009.6
20260903193414 80 309 3.0 14.0 0.42 0.16 0.17 74 1008.9
20260903193310 80 317 3.0 14.0 0.57 0.14 0.17 74 1008.8
20260903193205 81 348 3.0 14.0 0.27 0.14 0.16 73 1007.9
20260903193103 81 340 3.0 14.0 0.38 0.14 0.15 72 1007.7
20260903192957 81 320 3.0 14.0 0.38 0.13 0.15 73 1007.7
20260903192634 82 275 1.0 14.0 0.70 0.12 0.13 68 1007.5
20260903192529 82 271 0.0 14.0 1.10 0.06 0.12 75 1007.8
20260903192426 83 182 0.0 14.0 1.80 0.04 0.06 81 1008.0
20260903192100 84 164 0.0 0.0 0.65 0.00 0.01 82 1008.1
20260903191952 84 163 0.0 0.0 0.00 0.00 0.00 82 1008.1
20260903191850 84 163 0.0 0.0 0.00 0.00 0.00 81 1008.1
20260903191743 84 164 0.0 0.0 0.00 0.00 0.00 81 1008.1
20260903191637 84 164 0.0 0.0 0.00 0.00 0.00 81 1008.2
20260903191535 84 165 0.0 0.0 0.00 0.00 0.00 81 1008.2
20260903191208 84 165 0.0 0.0 0.00 0.00 0.00 80 1008.5
20260903191106 84 165 0.0 0.0 0.00 0.00 0.00 80 1008.7
20260903191000 84 165 0.0 0.0 0.00 0.00 0.00 80 1008.7
20260903190852 84 165 0.0 0.0 0.00 0.00 0.00 80 1008.7
20260903190747 85 165 0.0 0.0 0.00 0.00 0.00 80 1008.6
20260903190643 85 165 0.0 0.0 0.00 0.00 0.00 80 1008.6
20260903190538 85 165 0.0 0.0 0.00 0.00 0.00 80 1008.6
20260903190432 85 167 0.0 0.0 0.00 0.00 0.00 80 1008.6
20260903190328 85 168 0.0 0.0 0.00 0.00 0.00 79 1008.8
20260903190000 85 169 0.0 0.0 0.00 0.00 0.00 79 1009.1
20260903185855 85 192 0.0 0.0 0.00 0.00 0.00 79 1009.2
20260903185750 85 192 0.0 3.0 0.00 0.00 0.00 79 1009.3
20260903185422 85 139 0.0 0.0 0.00 0.00 0.00 80 1009.3
20260903185318 85 139 0.0 0.0 0.00 0.00 0.00 80 1009.3
20260903185211 85 122 0.0 0.0 0.00 0.00 0.00 81 1009.4
20260903185104 85 122 0.0 0.0 0.00 0.00 0.00 80 1009.3
20260903184957 85 161 0.0 3.0 0.00 0.00 0.00 80 1009.3
20260903184850 85 164 0.0 0.0 0.00 0.00 0.00 79 1009.3
20260903184525 85 165 0.0 1.0 0.00 0.00 0.00 79 1009.4
20260903184418 85 179 0.0 0.0 0.00 0.00 0.00 79 1009.5
20260903184311 85 180 0.0 0.0 0.00 0.00 0.00 79 1009.5
20260903184207 85 180 0.0 3.0 0.00 0.00 0.00 79 1009.6
20260903184105 85 180 0.0 3.0 0.00 0.00 0.00 79 1009.6
20260903184000 85 162 0.0 0.0 0.00 0.00 0.00 79 1009.6
20260903183856 85 162 0.0 0.0 0.00 0.00 0.00 78 1009.7
20260903183754 85 179 0.0 0.0 0.00 0.00 0.00 79 1009.8
20260903183648 85 200 0.0 0.0 0.00 0.00 0.00 79 1009.8
20260903183545 85 228 0.0 0.0 0.00 0.00 0.00 79 1009.9
20260903183439 85 175 0.0 0.0 0.00 0.00 0.00 79 1010.0
20260903183332 85 201 0.0 0.0 0.00 0.00 0.00 78 1010.0
20260903183226 85 201 0.0 0.0 0.00 0.00 0.00 78 1010.0
20260903183119 85 201 0.0 0.0 0.00 0.00 0.00 78 1010.0
20260903182752 85 207 0.0 3.0 0.00 0.00 0.00 78 1010.1
20260903182647 85 225 0.0 3.0 0.00 0.00 0.00 78 1010.1
20260903182539 85 132 0.0 2.0 0.00 0.00 0.00 78 1010.1
20260903182436 85 128 0.0 2.0 0.00 0.00 0.00 78 1010.1
20260903182333 85 119 0.0 0.0 0.00 0.00 0.00 78 1010.1
20260903182225 85 117 0.0 0.0 0.00 0.00 0.00 79 1010.1
20260903182118 85 118 0.0 6.0 0.00 0.00 0.00 78 1010.2
20260903182011 85 117 0.0 6.0 0.00 0.00 0.00 78 1010.1
20260903181904 85 128 0.0 6.0 0.00 0.00 0.00 78 1010.2
20260903181801 85 98 0.0 6.0 0.00 0.00 0.00 78 1010.2
20260903181435 85 83 1.0 5.0 0.00 0.00 0.00 79 1010.2
20260903181330 85 83 1.0 5.0 0.00 0.00 0.00 78 1010.1
20260903181224 85 77 0.0 5.0 0.00 0.00 0.00 77 1010.1
20260903181119 85 90 0.0 5.0 0.00 0.00 0.00 77 1010.1
20260903181017 85 91 0.0 5.0 0.00 0.00 0.00 77 1010.1
20260903180915 85 91 0.0 5.0 0.00 0.00 0.00 77 1010.1
20260903180813 85 74 0.0 5.0 0.00 0.00 0.00 77 1010.1
20260903180709 85 92 0.0 5.0 0.00 0.00 0.00 76 1010.1
20260903180607 85 71 0.0 5.0 0.00 0.00 0.00 76 1010.2
20260903180500 85 69 0.0 4.0 0.00 0.00 0.00 78 1010.1
20260903175911 85 115 0.0 2.0 0.00 0.00 0.00 79 1010.2
20260903175548 85 144 0.0 0.0 0.00 0.00 0.00 80 1010.2
20260903175443 85 144 0.0 0.0 0.00 0.00 0.00 80 1010.2
20260903175340 85 145 0.0 0.0 0.00 0.00 0.00 79 1010.2
20260903175233 85 145 0.0 0.0 0.00 0.00 0.00 79 1010.2
20260903175129 85 146 0.0 0.0 0.00 0.00 0.00 79 1010.2
20260903175027 85 146 0.0 0.0 0.00 0.00 0.00 80 1010.3
20260903174922 85 152 0.0 0.0 0.00 0.00 0.00 80 1010.3
20260903174815 84 152 0.0 1.0 0.00 0.00 0.00 79 1010.3
20260903174453 84 144 0.0 0.0 0.00 0.00 0.00 79 1010.3
20260903174349 84 144 0.0 0.0 0.00 0.00 0.00 79 1010.3
20260903174242 84 146 0.0 0.0 0.00 0.00 0.00 79 1010.3
20260903174135 84 149 0.0 0.0 0.00 0.00 0.00 79 1010.3
20260903174034 84 149 0.0 0.0 0.00 0.00 0.00 79 1010.3
20260903173931 84 149 0.0 0.0 0.00 0.00 0.00 78 1010.4
20260903173827 84 149 0.0 0.0 0.00 0.00 0.00 78 1010.4
20260903173722 84 130 0.0 0.0 0.00 0.00 0.00 78 1010.4
20260903173614 84 130 0.0 0.0 0.00 0.00 0.00 78 1010.3
20260903173509 84 130 0.0 3.0 0.00 0.00 0.00 78 1010.3
20260903173401 84 130 0.0 3.0 0.00 0.00 0.00 78 1010.3
20260903173255 84 130 0.0 3.0 0.00 0.00 0.00 77 1010.3
20260903173148 84 133 0.0 3.0 0.00 0.00 0.00 77 1010.3
20260903172821 84 123 0.0 2.0 0.00 0.00 0.00 77 1010.3
20260903172714 84 115 0.0 1.0 0.00 0.00 0.00 78 1010.3
20260903172609 84 136 0.0 0.0 0.00 0.00 0.00 78 1010.3
20260903172507 84 143 0.0 2.0 0.00 0.00 0.00 77 1010.3
20260903172402 84 146 0.0 2.0 0.00 0.00 0.00 77 1010.3
20260903172256 84 151 0.0 2.0 0.00 0.00 0.00 77 1010.3
20260903172150 84 150 0.0 2.0 0.00 0.00 0.00 79 1010.3
20260903171823 84 109 0.0 3.0 0.00 0.00 0.00 78 1010.3
20260903171717 84 152 0.0 3.0 0.00 0.00 0.00 78 1010.3
20260903171614 84 119 0.0 2.0 0.00 0.00 0.00 78 1010.3
20260903171250 84 95 1.0 6.0 0.00 0.00 0.00 77 1010.3
20260903170921 84 92 0.0 6.0 0.00 0.00 0.00 77 1010.2
20260903170815 84 93 1.0 6.0 0.00 0.00 0.00 77 1010.2
20260903170709 84 124 0.0 6.0 0.00 0.00 0.00 76 1010.2
20260903170607 84 101 0.0 6.0 0.00 0.00 0.00 76 1010.2
20260903170506 84 128 0.0 6.0 0.00 0.00 0.00 77 1010.2
20260903170359 84 106 0.0 6.0 0.00 0.00 0.00 77 1010.2
20260903170038 84 98 0.0 6.0 0.00 0.00 0.00 76 1010.2
20260903165930 84 93 0.0 6.0 0.00 0.00 0.00 77 1010.2
20260903165827 84 92 0.0 6.0 0.00 0.00 0.00 78 1010.2
20260903165458 84 86 0.0 6.0 0.00 0.00 0.00 76 1010.3
20260903164907 84 105 1.0 6.0 0.00 0.00 0.00 76 1010.3
20260903164802 84 106 1.0 6.0 0.00 0.00 0.00 75 1010.3
20260903164655 84 98 0.0 6.0 0.00 0.00 0.00 75 1010.3
20260903164549 84 150 0.0 6.0 0.00 0.00 0.00 77 1010.3
20260903164441 84 161 0.0 6.0 0.00 0.00 0.00 76 1010.3
20260903164338 84 162 1.0 6.0 0.00 0.00 0.00 76 1010.3
20260903164008 84 121 0.0 6.0 0.00 0.00 0.00 76 1010.4
20260903163904 84 155 0.0 6.0 0.00 0.00 0.00 76 1010.5
20260903163801 84 119 0.0 6.0 0.00 0.00 0.00 77 1010.5
20260903163655 84 127 0.0 6.0 0.00 0.00 0.00 77 1010.5
20260903163333 84 90 0.0 5.0 0.00 0.00 0.00 77 1010.6
20260903163007 84 153 0.0 0.0 0.00 0.00 0.00 79 1010.7
20260903162903 83 167 0.0 0.0 0.00 0.00 0.00 78 1010.7
20260903162759 83 169 0.0 4.0 0.00 0.00 0.00 78 1010.7
20260903162434 83 157 0.0 4.0 0.00 0.00 0.00 78 1010.7
20260903162327 83 165 0.0 4.0 0.00 0.00 0.00 77 1010.7
20260903162220 83 156 0.0 4.0 0.00 0.00 0.00 78 1010.7
20260903162113 83 112 0.0 2.0 0.00 0.00 0.00 77 1010.8
20260903162008 82 112 0.0 2.0 0.00 0.00 0.00 78 1010.9
20260903161904 82 88 0.0 1.0 0.00 0.00 0.00 79 1011.0
20260903161801 82 67 0.0 0.0 0.00 0.00 0.00 79 1011.1
20260903161654 82 67 0.0 0.0 0.00 0.00 0.00 79 1011.1
20260903161553 82 67 0.0 0.0 0.00 0.00 0.00 78 1011.1
20260903161229 82 67 0.0 2.0 0.00 0.00 0.00 77 1011.0
20260903160901 82 67 0.0 0.0 0.00 0.00 0.00 77 1010.9
20260903160755 82 67 0.0 0.0 0.00 0.00 0.00 78 1010.9
20260903160427 82 67 1.0 6.0 0.00 0.00 0.00 77 1011.0
20260903160325 82 60 1.0 6.0 0.00 0.00 0.00 78 1011.0
20260903160217 82 60 0.0 6.0 0.00 0.00 0.00 77 1011.0
20260903160113 82 24 0.0 6.0 0.00 0.00 0.00 78 1011.1
20260903160007 82 25 0.0 6.0 0.00 0.00 0.00 77 1011.1
20260903155904 82 48 0.0 6.0 0.00 0.00 0.00 79 1011.1
20260903155759 82 13 0.0 5.0 0.00 0.00 0.00 80 1011.1
20260903155654 82 42 0.0 3.0 0.00 0.00 0.00 81 1011.1
20260903155547 82 42 0.0 3.0 0.00 0.00 0.00 80 1011.1
20260903155441 81 67 1.0 0.0 0.00 0.00 0.00 79 1011.1
20260903155338 81 69 1.0 0.0 0.00 0.00 0.00 80 1011.0
20260903155232 81 69 1.0 0.0 0.00 0.00 0.00 78 1011.1
20260903155124 81 69 1.0 0.0 0.00 0.00 0.00 79 1011.1
20260903155021 81 68 1.0 10.0 0.00 0.00 0.00 78 1011.1
20260903154914 81 68 1.0 10.0 0.00 0.00 0.00 78 1011.1
20260903154552 81 34 0.0 10.0 0.00 0.00 0.00 79 1011.3
20260903154447 81 26 0.0 7.0 0.00 0.00 0.00 83 1011.3
20260903154118 81 16 0.0 0.0 0.00 0.00 0.00 83 1011.2
20260903153753 81 279 0.0 0.0 0.00 0.00 0.00 83 1011.1
20260903153649 81 279 0.0 0.0 0.00 0.00 0.00 83 1011.1
20260903153542 81 279 0.0 0.0 0.00 0.00 0.00 82 1011.1
20260903153440 81 279 0.0 0.0 0.00 0.00 0.00 82 1011.1
20260903153333 81 279 0.0 0.0 0.00 0.00 0.00 82 1011.1
20260903153228 81 279 0.0 0.0 0.00 0.00 0.00 82 1011.1
20260903153126 81 279 0.0 0.0 0.00 0.00 0.00 82 1011.1
20260903152804 80 279 0.0 0.0 0.00 0.00 0.00 82 1011.0
20260903152700 80 279 0.0 0.0 0.00 0.00 0.00 82 1011.0
20260903152552 80 279 0.0 0.0 0.00 0.00 0.00 82 1011.0
20260903152450 80 279 0.0 0.0 0.00 0.00 0.00 82 1011.0
20260903152345 80 279 0.0 0.0 0.00 0.00 0.00 82 1011.0
20260903152239 80 279 0.0 0.0 0.00 0.00 0.00 82 1010.9
20260903152132 80 280 0.0 0.0 0.00 0.00 0.00 82 1010.9
20260903152030 80 280 0.0 0.0 0.00 0.00 0.00 82 1010.9
20260903151927 80 280 0.0 0.0 0.00 0.00 0.00 82 1010.8
20260903151822 80 280 0.0 0.0 0.00 0.00 0.00 82 1010.9
20260903151718 80 280 0.0 0.0 0.00 0.00 0.00 81 1010.9
20260903151135 80 281 0.0 0.0 0.00 0.00 0.00 82 1010.9
20260903150811 80 282 0.0 0.0 0.00 0.00 0.00 82 1011.0
20260903150224 80 284 0.0 0.0 0.00 0.00 0.00 82 1011.0
20260903150117 80 284 0.0 0.0 0.00 0.00 0.00 81 1011.0
20260903150010 80 284 0.0 0.0 0.00 0.00 0.00 81 1010.9
20260903145648 80 284 0.0 0.0 0.00 0.00 0.00 82 1010.8
20260903145544 80 284 0.0 0.0 0.00 0.00 0.00 82 1010.8
20260903145437 80 284 0.0 0.0 0.00 0.00 0.00 82 1010.7
20260903145335 80 284 0.0 0.0 0.00 0.00 0.00 82 1010.8
20260903145228 80 284 0.0 0.0 0.00 0.00 0.00 82 1010.8
20260903145124 80 284 0.0 0.0 0.00 0.00 0.00 82 1010.8
20260903145020 80 284 0.0 0.0 0.00 0.00 0.00 82 1010.8
20260903144915 80 284 0.0 0.0 0.00 0.00 0.00 82 1010.9
20260903144810 80 285 0.0 0.0 0.00 0.00 0.00 82 1010.9
20260903144703 80 285 0.0 0.0 0.00 0.00 0.00 82 1010.9
20260903144601 79 286 0.0 0.0 0.00 0.00 0.00 82 1010.8
20260903144455 79 285 0.0 0.0 0.00 0.00 0.00 82 1010.8
20260903144348 79 286 0.0 0.0 0.00 0.00 0.00 82 1010.8
20260903144244 79 286 0.0 0.0 0.00 0.00 0.00 82 1010.8
20260903144138 79 286 0.0 0.0 0.00 0.00 0.00 82 1010.8
20260903143811 79 270 1.0 7.0 0.00 0.00 0.00 82 1010.9
20260903143709 79 270 1.0 7.0 0.00 0.00 0.00 83 1010.9
20260903143602 79 277 1.0 7.0 0.00 0.00 0.00 83 1011.1
20260903143457 79 281 1.0 7.0 0.00 0.00 0.00 83 1011.1
20260903143354 79 304 1.0 7.0 0.00 0.00 0.00 83 1011.1
20260903143249 79 270 0.0 7.0 0.00 0.00 0.00 84 1011.1
20260903143145 79 313 0.0 7.0 0.00 0.00 0.00 84 1011.2
20260903143043 79 305 0.0 7.0 0.00 0.00 0.00 85 1011.2
20260903142940 79 253 0.0 7.0 0.00 0.00 0.00 86 1011.2
20260903142836 79 346 0.0 4.0 0.00 0.00 0.00 87 1011.3
20260903142728 79 293 0.0 3.0 0.00 0.00 0.00 87 1011.2
20260903142623 79 280 0.0 3.0 0.00 0.00 0.00 87 1011.2
20260903142301 79 318 0.0 0.0 0.00 0.00 0.00 88 1011.3
20260903141938 79 313 0.0 0.0 0.00 0.00 0.00 88 1011.1
20260903141836 79 313 0.0 0.0 0.00 0.00 0.00 88 1011.1
20260903141733 79 313 0.0 0.0 0.00 0.00 0.00 88 1011.1
20260903141625 79 313 0.0 0.0 0.00 0.00 0.00 88 1011.1
20260903141522 79 312 0.0 0.0 0.00 0.00 0.00 88 1011.2
20260903141415 79 313 0.0 0.0 0.00 0.00 0.00 88 1011.2
20260903141311 79 313 0.0 0.0 0.00 0.00 0.00 87 1011.2
20260903141208 79 313 0.0 0.0 0.00 0.00 0.00 87 1011.2
20260903141105 79 313 0.0 0.0 0.00 0.00 0.00 87 1011.3
20260903140959 79 279 0.0 0.0 0.00 0.00 0.00 87 1011.2
20260903140853 79 273 0.0 0.0 0.00 0.00 0.00 87 1011.2
20260903140749 79 273 0.0 0.0 0.00 0.00 0.00 87 1011.1
20260903140645 79 273 0.0 0.0 0.00 0.00 0.00 87 1011.0
20260903140543 79 273 0.0 0.0 0.00 0.00 0.00 87 1010.9
20260903140221 80 273 0.0 0.0 0.00 0.00 0.00 86 1010.7
20260903140116 80 273 0.0 0.0 0.00 0.00 0.00 86 1010.7
20260903140011 80 273 0.0 0.0 0.00 0.00 0.00 86 1010.7
20260903135906 80 273 0.0 0.0 0.00 0.00 0.00 86 1010.6
20260903135804 80 273 0.0 0.0 0.00 0.00 0.00 86 1010.6
20260903135656 80 273 0.0 0.0 0.00 0.00 0.00 86 1010.5
20260903135549 80 273 0.0 0.0 0.00 0.00 0.00 86 1010.6
20260903135225 80 273 0.0 0.0 0.00 0.00 0.00 86 1010.5
20260903135118 80 273 0.0 0.0 0.00 0.00 0.00 86 1010.5
20260903134753 80 273 0.0 0.0 0.00 0.00 0.00 86 1010.7
20260903134648 80 273 0.0 0.0 0.00 0.00 0.00 85 1010.6
20260903134541 80 273 0.0 0.0 0.00 0.00 0.00 85 1010.7
20260903134437 80 273 0.0 0.0 0.00 0.00 0.00 85 1010.7
20260903134331 80 273 0.0 0.0 0.00 0.00 0.00 85 1010.6
20260903134224 80 273 0.0 0.0 0.00 0.00 0.00 85 1010.6
20260903134122 80 273 0.0 0.0 0.00 0.00 0.00 85 1010.6
20260903134015 80 273 0.0 0.0 0.00 0.00 0.00 85 1010.6
20260903133911 80 273 0.0 0.0 0.00 0.00 0.00 85 1010.6
20260903133807 80 273 0.0 0.0 0.00 0.00 0.00 85 1010.7
20260903133703 80 273 0.0 0.0 0.00 0.00 0.00 85 1010.8
20260903133556 80 273 0.0 0.0 0.00 0.00 0.00 84 1010.9
20260903133454 80 273 0.0 0.0 0.00 0.00 0.00 85 1010.8
20260903133351 80 273 0.0 0.0 0.00 0.00 0.00 84 1010.9
20260903133243 80 273 0.0 0.0 0.00 0.00 0.00 84 1010.9
20260903132658 81 274 0.0 0.0 0.00 0.00 0.00 84 1010.9
20260903132555 81 274 0.0 0.0 0.00 0.00 0.00 84 1010.9
20260903132450 81 274 0.0 0.0 0.00 0.00 0.00 84 1010.9
20260903132344 81 274 0.0 0.0 0.00 0.00 0.00 84 1010.9
20260903132023 81 275 0.0 0.0 0.00 0.00 0.00 85 1010.9
20260903131920 81 275 0.0 0.0 0.00 0.00 0.00 85 1010.9
20260903131814 81 275 0.0 0.0 0.00 0.00 0.00 85 1010.9
20260903131711 81 275 0.0 4.0 0.00 0.00 0.00 85 1011.0
20260903131347 80 282 0.0 4.0 0.00 0.00 0.00 85 1010.9
20260903131021 80 239 0.0 0.0 0.00 0.00 0.00 86 1011.0
20260903130913 80 283 0.0 0.0 0.00 0.00 0.00 87 1011.0
20260903130810 80 285 0.0 0.0 0.00 0.00 0.00 87 1011.0
20260903130704 80 285 0.0 0.0 0.00 0.00 0.00 87 1011.0
20260903130559 80 286 0.0 0.0 0.00 0.00 0.00 87 1011.0
20260903130458 80 286 0.0 0.0 0.00 0.00 0.00 87 1011.0
20260903130352 80 286 0.0 0.0 0.00 0.00 0.00 87 1011.0
20260903130244 80 286 0.0 0.0 0.00 0.00 0.00 87 1011.0
20260903130137 80 286 0.0 0.0 0.00 0.00 0.00 87 1011.0
20260903130031 80 287 0.0 0.0 0.00 0.00 0.00 88 1011.0
20260903125926 79 287 0.0 0.0 0.00 0.00 0.00 88 1010.9
20260903125823 79 287 0.0 0.0 0.00 0.00 0.00 88 1010.9
20260903125721 79 287 0.0 0.0 0.00 0.00 0.00 87 1010.8
20260903125615 79 287 0.0 0.0 0.00 0.00 0.00 88 1010.8
20260903125243 79 288 0.0 0.0 0.00 0.00 0.00 88 1010.6
20260903125137 79 288 0.0 0.0 0.00 0.00 0.00 88 1010.7
20260903125031 79 288 0.0 0.0 0.00 0.00 0.00 88 1010.7
20260903124928 79 288 0.0 0.0 0.00 0.00 0.00 88 1010.7
20260903124820 79 288 0.0 0.0 0.00 0.00 0.00 89 1010.8
20260903124713 79 288 0.0 0.0 0.00 0.00 0.00 88 1010.8
20260903124608 79 288 0.0 0.0 0.00 0.00 0.00 89 1010.8
20260903124506 79 288 0.0 0.0 0.00 0.00 0.00 89 1010.9
20260903124403 78 288 0.0 0.0 0.00 0.00 0.00 89 1010.9
20260903124300 78 288 0.0 0.0 0.00 0.00 0.00 89 1010.9
20260903124156 78 290 0.0 0.0 0.00 0.00 0.00 89 1010.9
20260903124052 78 289 0.0 0.0 0.00 0.00 0.00 89 1010.9
20260903123945 78 289 0.0 0.0 0.00 0.00 0.00 89 1010.9
20260903123838 78 289 0.0 0.0 0.00 0.00 0.00 89 1011.0
20260903123733 78 289 0.0 0.0 0.00 0.00 0.00 89 1010.9
20260903123628 78 288 0.0 0.0 0.00 0.00 0.00 89 1011.0
20260903123522 78 289 0.0 0.0 0.00 0.00 0.00 89 1011.0
20260903123415 78 290 0.0 0.0 0.00 0.00 0.00 89 1011.1
20260903123309 78 290 0.0 0.0 0.00 0.00 0.00 89 1011.1
20260903123206 78 289 0.0 0.0 0.00 0.00 0.00 90 1011.1
20260903123103 78 282 0.0 0.0 0.00 0.00 0.00 90 1011.1
20260903122959 78 282 0.0 0.0 0.00 0.00 0.00 90 1011.1
20260903122852 78 282 0.0 0.0 0.00 0.00 0.00 90 1011.1
20260903122528 78 282 0.0 0.0 0.00 0.00 0.00 91 1011.1
20260903122425 78 282 0.0 0.0 0.00 0.00 0.00 92 1011.1
20260903122318 78 282 0.0 0.0 0.00 0.00 0.00 92 1011.1
20260903122211 78 282 0.0 0.0 0.00 0.00 0.00 92 1011.1
20260903122108 78 282 0.0 0.0 0.00 0.00 0.00 92 1011.1
20260903121748 77 282 0.0 0.0 0.00 0.00 0.00 92 1011.0
20260903121640 77 282 0.0 0.0 0.00 0.00 0.00 92 1011.0
20260903121055 77 282 0.0 0.0 0.00 0.00 0.00 93 1011.0
20260903120950 77 282 0.0 0.0 0.00 0.00 0.00 93 1011.0
20260903120401 76 282 0.0 0.0 0.00 0.00 0.00 94 1011.0
20260903120257 76 282 0.0 0.0 0.00 0.00 0.00 94 1011.0
20260903120150 76 282 0.0 0.0 0.00 0.00 0.00 94 1011.0
20260903120045 76 282 0.0 0.0 0.00 0.00 0.00 94 1011.0
20260903115941 76 282 0.0 0.0 0.00 0.00 0.00 93 1011.0
20260903115838 76 282 0.0 0.0 0.00 0.00 0.00 93 1011.0
20260903115733 75 282 0.0 0.0 0.00 0.00 0.00 93 1011.0
20260903115630 75 282 0.0 0.0 0.00 0.00 0.00 93 1010.9
20260903115523 75 282 0.0 0.0 0.00 0.00 0.00 93 1010.9
20260903115154 75 282 0.0 0.0 0.00 0.00 0.00 93 1010.9
20260903115051 75 282 0.0 0.0 0.00 0.00 0.00 93 1010.8
20260903114722 75 282 0.0 0.0 0.00 0.00 0.00 93 1010.8
20260903114616 75 282 0.0 0.0 0.00 0.00 0.00 93 1010.8
20260903114513 75 282 0.0 0.0 0.00 0.00 0.00 93 1010.7
20260903114146 75 282 0.0 0.0 0.00 0.00 0.00 92 1010.7
20260903114044 75 282 0.0 0.0 0.00 0.00 0.00 92 1010.7
20260903113939 75 282 0.0 0.0 0.00 0.00 0.00 92 1010.7
20260903113833 75 282 0.0 0.0 0.00 0.00 0.00 92 1010.7
20260903113728 75 282 0.0 0.0 0.00 0.00 0.00 92 1010.7
20260903113622 75 282 0.0 0.0 0.00 0.00 0.00 92 1010.7
20260903113520 75 282 0.0 0.0 0.00 0.00 0.00 92 1010.7
20260903113412 75 282 0.0 0.0 0.00 0.00 0.00 92 1010.7
20260903113307 75 282 0.0 0.0 0.00 0.00 0.00 92 1010.7
20260903113204 75 282 0.0 0.0 0.00 0.00 0.00 92 1010.7
20260903113101 75 282 0.0 0.0 0.00 0.00 0.00 92 1010.7
20260903112959 75 282 0.0 0.0 0.00 0.00 0.00 92 1010.7
20260903112856 75 282 0.0 0.0 0.00 0.00 0.00 92 1010.7
20260903112751 75 282 0.0 0.0 0.00 0.00 0.00 92 1010.7
20260903112647 75 282 0.0 0.0 0.00 0.00 0.00 92 1010.7
20260903112540 75 282 0.0 0.0 0.00 0.00 0.00 92 1010.7
20260903112438 75 282 0.0 0.0 0.00 0.00 0.00 92 1010.7
20260903112333 75 282 0.0 0.0 0.00 0.00 0.00 92 1010.7
20260903112228 75 282 0.0 0.0 0.00 0.00 0.00 92 1010.7
20260903112126 75 282 0.0 0.0 0.00 0.00 0.00 92 1010.7
20260903112022 75 282 0.0 0.0 0.00 0.00 0.00 92 1010.7
20260903111916 75 282 0.0 0.0 0.00 0.00 0.00 92 1010.7
20260903111810 75 282 0.0 0.0 0.00 0.00 0.00 93 1010.7
20260903111704 75 282 0.0 0.0 0.00 0.00 0.00 93 1010.6
20260903111338 75 282 0.0 0.0 0.00 0.00 0.00 93 1010.6
20260903111232 75 282 0.0 0.0 0.00 0.00 0.00 93 1010.6
20260903111127 75 281 0.0 0.0 0.00 0.00 0.00 92 1010.6
20260903111019 75 281 0.0 0.0 0.00 0.00 0.00 93 1010.6
20260903110916 75 281 0.0 0.0 0.00 0.00 0.00 93 1010.6
20260903110338 75 281 0.0 0.0 0.00 0.00 0.00 93 1010.5
20260903110232 75 281 0.0 0.0 0.00 0.00 0.00 93 1010.5
20260903110125 75 281 0.0 0.0 0.00 0.00 0.00 93 1010.4
20260903110022 75 281 0.0 0.0 0.00 0.00 0.00 93 1010.5
20260903105656 75 281 0.0 0.0 0.00 0.00 0.00 93 1010.4
20260903105551 75 281 0.0 0.0 0.00 0.00 0.00 93 1010.4
20260903105445 75 281 0.0 0.0 0.00 0.00 0.00 93 1010.4
20260903105340 75 281 0.0 0.0 0.00 0.00 0.00 93 1010.4
20260903105237 75 281 0.0 0.0 0.00 0.00 0.00 93 1010.4
20260903105135 75 281 0.0 0.0 0.00 0.00 0.00 93 1010.4
20260903105031 75 281 0.0 0.0 0.00 0.00 0.00 93 1010.4
20260903104924 75 281 0.0 0.0 0.00 0.00 0.00 93 1010.4
20260903104821 75 281 0.0 0.0 0.00 0.00 0.00 93 1010.4
20260903104714 75 281 0.0 0.0 0.00 0.00 0.00 93 1010.4
20260903104607 75 281 0.0 0.0 0.00 0.00 0.00 93 1010.3
20260903104502 75 281 0.0 0.0 0.00 0.00 0.00 93 1010.3
20260903104356 75 281 0.0 0.0 0.00 0.00 0.00 93 1010.4
20260903104250 75 281 0.0 0.0 0.00 0.00 0.00 93 1010.4
20260903104146 75 281 0.0 0.0 0.00 0.00 0.00 93 1010.4
20260903104044 75 281 0.0 0.0 0.00 0.00 0.00 93 1010.3
20260903103936 75 281 0.0 0.0 0.00 0.00 0.00 93 1010.4
20260903103832 75 281 0.0 0.0 0.00 0.00 0.00 93 1010.4
20260903103505 75 281 0.0 0.0 0.00 0.00 0.00 93 1010.4
20260903103136 75 281 0.0 0.0 0.00 0.00 0.00 93 1010.4
20260903103031 75 281 0.0 0.0 0.00 0.00 0.00 93 1010.4
20260903102447 75 282 0.0 0.0 0.00 0.00 0.00 93 1010.4
20260903102126 75 282 0.0 0.0 0.00 0.00 0.00 93 1010.4
20260903102021 75 282 0.0 0.0 0.00 0.00 0.00 93 1010.4
20260903101918 75 282 0.0 0.0 0.00 0.00 0.00 93 1010.4
20260903101810 75 282 0.0 0.0 0.00 0.00 0.00 93 1010.4
20260903101703 75 282 0.0 0.0 0.00 0.00 0.00 93 1010.5
20260903101559 75 282 0.0 0.0 0.00 0.00 0.00 93 1010.4
20260903101452 75 282 0.0 0.0 0.00 0.00 0.00 93 1010.4
20260903101348 75 282 0.0 0.0 0.00 0.00 0.00 94 1010.4
20260903101020 74 284 0.0 0.0 0.00 0.00 0.00 93 1010.4
20260903100652 74 285 0.0 0.0 0.00 0.00 0.00 93 1010.4
20260903100550 74 285 0.0 0.0 0.00 0.00 0.00 93 1010.4
20260903100224 74 285 0.0 0.0 0.00 0.00 0.00 93 1010.4
20260903095904 74 285 0.0 0.0 0.00 0.00 0.00 93 1010.4
20260903095756 74 285 0.0 0.0 0.00 0.00 0.00 93 1010.3
20260903095654 74 285 0.0 0.0 0.00 0.00 0.00 93 1010.3
20260903095115 74 285 0.0 0.0 0.00 0.00 0.00 92 1010.3
20260903095010 74 285 0.0 0.0 0.00 0.00 0.00 92 1010.3
20260903094904 74 285 0.0 0.0 0.00 0.00 0.00 92 1010.3
20260903094800 74 285 0.0 0.0 0.00 0.00 0.00 92 1010.3
20260903094655 74 285 0.0 0.0 0.00 0.00 0.00 92 1010.3
20260903094108 74 285 0.0 0.0 0.00 0.00 0.00 92 1010.3
20260903094004 74 285 0.0 0.0 0.00 0.00 0.00 92 1010.3
20260903093858 74 285 0.0 0.0 0.00 0.00 0.00 92 1010.3
20260903093751 74 285 0.0 0.0 0.00 0.00 0.00 92 1010.3
20260903093650 74 285 0.0 0.0 0.00 0.00 0.00 92 1010.3
20260903093547 74 285 0.0 0.0 0.00 0.00 0.00 92 1010.3
20260903093443 74 285 0.0 0.0 0.00 0.00 0.00 92 1010.2
20260903093123 75 285 0.0 0.0 0.00 0.00 0.00 92 1010.2
20260903093017 75 285 0.0 0.0 0.00 0.00 0.00 92 1010.2
20260903092912 75 285 0.0 0.0 0.00 0.00 0.00 92 1010.2
20260903092810 75 285 0.0 0.0 0.00 0.00 0.00 92 1010.3
20260903092703 75 285 0.0 0.0 0.00 0.00 0.00 92 1010.3
20260903092557 75 285 0.0 0.0 0.00 0.00 0.00 92 1010.2
20260903092453 75 285 0.0 0.0 0.00 0.00 0.00 92 1010.1
20260903092351 75 285 0.0 0.0 0.00 0.00 0.00 92 1010.2
20260903092023 75 285 0.0 0.0 0.00 0.00 0.00 92 1010.2
20260903091921 75 285 0.0 0.0 0.00 0.00 0.00 92 1010.2
20260903091556 75 285 0.0 0.0 0.00 0.00 0.00 92 1010.2
20260903091451 74 285 0.0 0.0 0.00 0.00 0.00 92 1010.2
20260903091344 74 285 0.0 0.0 0.00 0.00 0.00 92 1010.2
20260903091239 74 285 0.0 0.0 0.00 0.00 0.00 92 1010.1
20260903091136 74 285 0.0 0.0 0.00 0.00 0.00 92 1010.2
20260903091030 74 285 0.0 0.0 0.00 0.00 0.00 92 1010.2
20260903090925 74 285 0.0 0.0 0.00 0.00 0.00 92 1010.2
20260903090823 74 285 0.0 0.0 0.00 0.00 0.00 92 1010.2
20260903090457 75 285 0.0 0.0 0.00 0.00 0.00 91 1010.2
20260903090347 75 285 0.0 0.0 0.00 0.00 0.00 91 1010.2
20260903090244 75 285 0.0 0.0 0.00 0.00 0.00 91 1010.2
20260903090140 75 285 0.0 0.0 0.00 0.00 0.00 91 1010.2
20260903090037 75 285 0.0 0.0 0.00 0.00 0.00 91 1010.2
20260903085934 75 285 0.0 0.0 0.00 0.00 0.00 91 1010.2
20260903085830 75 285 0.0 0.0 0.00 0.00 0.00 91 1010.2
20260903085724 75 285 0.0 0.0 0.00 0.00 0.00 91 1010.2
20260903085619 75 285 0.0 0.0 0.00 0.00 0.00 91 1010.2
20260903085516 75 285 0.0 0.0 0.00 0.00 0.00 91 1010.1
20260903085410 75 285 0.0 0.0 0.00 0.00 0.00 91 1010.2
20260903085306 75 285 0.0 0.0 0.00 0.00 0.00 91 1010.1
20260903084937 75 285 0.0 0.0 0.00 0.00 0.00 91 1010.1
20260903084835 75 285 0.0 0.0 0.00 0.00 0.00 91 1010.1
20260903084028 75 285 0.0 0.0 0.00 0.00 0.00 91 1010.1
20260903083922 75 285 0.0 0.0 0.00 0.00 0.00 91 1010.1
20260903083815 75 285 0.0 0.0 0.00 0.00 0.00 91 1010.1
20260903083709 75 285 0.0 0.0 0.00 0.00 0.00 91 1010.1
20260903083346 75 285 0.0 0.0 0.00 0.00 0.00 91 1010.2
20260903083021 76 285 0.0 0.0 0.00 0.00 0.00 91 1010.2
20260903082914 76 285 0.0 0.0 0.00 0.00 0.00 91 1010.2
20260903082551 76 285 0.0 0.0 0.00 0.00 0.00 91 1010.2
20260903082446 76 285 0.0 0.0 0.00 0.00 0.00 91 1010.2
20260903082341 76 285 0.0 0.0 0.00 0.00 0.00 91 1010.2
20260903082012 76 285 0.0 0.0 0.00 0.00 0.00 91 1010.2
20260903081906 76 285 0.0 0.0 0.00 0.00 0.00 91 1010.2
20260903081805 76 285 0.0 0.0 0.00 0.00 0.00 91 1010.3
20260903081700 76 285 0.0 0.0 0.00 0.00 0.00 91 1010.2
20260903081557 76 285 0.0 0.0 0.00 0.00 0.00 91 1010.2
20260903081449 76 285 0.0 0.0 0.00 0.00 0.00 91 1010.2
20260903081344 76 285 0.0 0.0 0.00 0.00 0.00 91 1010.2
20260903081238 76 285 0.0 0.0 0.00 0.00 0.00 91 1010.2
20260903081133 76 285 0.0 0.0 0.00 0.00 0.00 91 1010.3
20260903080555 76 285 0.0 0.0 0.00 0.00 0.00 90 1010.2
20260903080447 76 285 0.0 0.0 0.00 0.00 0.00 90 1010.2
20260903080346 76 285 0.0 0.0 0.00 0.00 0.00 90 1010.2
20260903080022 76 285 0.0 0.0 0.00 0.00 0.00 90 1010.2
20260903075914 76 285 0.0 0.0 0.00 0.00 0.00 90 1010.2
20260903075809 76 285 0.0 0.0 0.00 0.00 0.00 91 1010.2
20260903075701 76 285 0.0 0.0 0.00 0.00 0.00 91 1010.2
20260903075555 76 285 0.0 0.0 0.00 0.00 0.00 91 1010.2
20260903075452 76 285 0.0 0.0 0.00 0.00 0.00 90 1010.2
20260903075125 77 285 0.0 0.0 0.00 0.00 0.00 90 1010.2
20260903075023 77 285 0.0 0.0 0.00 0.00 0.00 90 1010.2
20260903074656 77 285 0.0 0.0 0.00 0.00 0.00 91 1010.1
20260903074549 77 285 0.0 0.0 0.00 0.00 0.00 91 1010.1
20260903074444 77 285 0.0 0.0 0.00 0.00 0.00 91 1010.1
20260903074338 77 284 0.0 0.0 0.00 0.00 0.00 91 1010.1
20260903074012 77 284 0.0 0.0 0.00 0.00 0.00 91 1010.1
20260903073905 77 284 0.0 0.0 0.00 0.00 0.00 91 1010.1
20260903073800 77 284 0.0 0.0 0.00 0.00 0.00 91 1010.1
20260903073657 77 284 0.0 0.0 0.00 0.00 0.00 91 1010.1
20260903073551 77 284 0.0 0.0 0.00 0.00 0.00 91 1010.1
20260903073446 77 284 0.0 0.0 0.00 0.00 0.00 91 1010.1
20260903073343 77 284 0.0 0.0 0.00 0.00 0.00 91 1010.0
20260903073017 76 285 0.0 0.0 0.00 0.00 0.00 91 1010.0
20260903072652 76 285 0.0 0.0 0.00 0.00 0.00 91 1010.0
20260903072545 76 285 0.0 0.0 0.00 0.00 0.00 91 1010.0
20260903072438 76 285 0.0 0.0 0.00 0.00 0.00 91 1010.0
20260903072333 76 285 0.0 0.0 0.00 0.00 0.00 91 1010.0
20260903072230 76 285 0.0 0.0 0.00 0.00 0.00 91 1010.0
20260903072123 76 285 0.0 0.0 0.00 0.00 0.00 91 1010.0
20260903072017 76 285 0.0 0.0 0.00 0.00 0.00 91 1010.1
20260903071915 76 285 0.0 0.0 0.00 0.00 0.00 91 1010.0
20260903071811 76 285 0.0 0.0 0.00 0.00 0.00 91 1010.0
20260903071443 76 285 0.0 0.0 0.00 0.00 0.00 90 1010.0
20260903071340 76 285 0.0 0.0 0.00 0.00 0.00 91 1010.0
20260903071236 76 285 0.0 0.0 0.00 0.00 0.00 91 1010.0
20260903071133 76 285 0.0 0.0 0.00 0.00 0.00 91 1009.9
20260903071025 76 285 0.0 0.0 0.00 0.00 0.00 90 1009.9
20260903070920 76 285 0.0 0.0 0.00 0.00 0.00 90 1010.0
20260903070815 76 285 0.0 0.0 0.00 0.00 0.00 90 1009.9
20260903070708 76 285 0.0 0.0 0.00 0.00 0.00 90 1009.9
20260903070602 76 285 0.0 0.0 0.00 0.00 0.00 90 1009.9
20260903070454 76 285 0.0 0.0 0.00 0.00 0.00 90 1009.9
20260903070349 76 285 0.0 0.0 0.00 0.00 0.00 90 1009.9
20260903070246 76 285 0.0 0.0 0.00 0.00 0.00 90 1009.9
20260903070139 76 285 0.0 0.0 0.00 0.00 0.00 90 1009.9
20260903065812 76 285 0.0 0.0 0.00 0.00 0.00 90 1009.9
20260903065708 76 285 0.0 0.0 0.00 0.00 0.00 90 1009.9
20260903065604 76 285 0.0 0.0 0.00 0.00 0.00 90 1009.9
20260903065501 76 285 0.0 0.0 0.00 0.00 0.00 90 1009.9
20260903065359 76 285 0.0 0.0 0.00 0.00 0.00 90 1009.9
20260903065253 76 285 0.0 0.0 0.00 0.00 0.00 90 1009.9
20260903065146 76 285 0.0 0.0 0.00 0.00 0.00 90 1009.9
20260903065042 76 285 0.0 0.0 0.00 0.00 0.00 90 1009.9
20260903064937 76 285 0.0 0.0 0.00 0.00 0.00 90 1009.9
20260903064831 76 285 0.0 0.0 0.00 0.00 0.00 90 1009.9
20260903064728 76 285 0.0 0.0 0.00 0.00 0.00 90 1009.9
20260903064620 76 285 0.0 0.0 0.00 0.00 0.00 90 1009.9
20260903064518 76 285 0.0 0.0 0.00 0.00 0.00 90 1009.9
20260903064414 76 285 0.0 0.0 0.00 0.00 0.00 90 1009.9
20260903064310 76 285 0.0 0.0 0.00 0.00 0.00 90 1009.9
20260903064206 76 285 0.0 0.0 0.00 0.00 0.00 90 1009.9
20260903063842 76 285 0.0 0.0 0.00 0.00 0.00 90 1009.9
20260903063738 76 285 0.0 0.0 0.00 0.00 0.00 90 1009.9
20260903063636 76 285 0.0 0.0 0.00 0.00 0.00 90 1009.8
20260903063528 76 285 0.0 0.0 0.00 0.00 0.00 90 1009.8
20260903063421 76 285 0.0 0.0 0.00 0.00 0.00 89 1009.9
20260903063314 76 285 0.0 0.0 0.00 0.00 0.00 89 1009.9
20260903063211 76 285 0.0 0.0 0.00 0.00 0.00 89 1009.9
20260903063106 76 285 0.0 0.0 0.00 0.00 0.00 89 1009.8
20260903063003 76 285 0.0 0.0 0.00 0.00 0.00 89 1009.9
20260903062858 77 285 0.0 0.0 0.00 0.00 0.00 89 1009.9
20260903062750 77 285 0.0 0.0 0.00 0.00 0.00 89 1009.9
20260903062647 77 285 0.0 0.0 0.00 0.00 0.00 89 1009.9
20260903062322 77 285 0.0 0.0 0.00 0.00 0.00 89 1009.8
20260903062217 77 285 0.0 0.0 0.00 0.00 0.00 89 1009.9
20260903062110 77 285 0.0 0.0 0.00 0.00 0.00 89 1009.8
20260903062008 77 285 0.0 0.0 0.00 0.00 0.00 89 1009.9
20260903061906 77 285 0.0 0.0 0.00 0.00 0.00 89 1009.9
20260903061800 77 285 0.0 0.0 0.00 0.00 0.00 89 1009.8
20260903061654 77 285 0.0 0.0 0.00 0.00 0.00 89 1009.8
20260903061549 77 285 0.0 0.0 0.00 0.00 0.00 89 1009.8
20260903061445 77 285 0.0 0.0 0.00 0.00 0.00 89 1009.8
20260903061338 77 285 0.0 0.0 0.00 0.00 0.00 89 1009.8
20260903061232 77 285 0.0 0.0 0.00 0.00 0.00 89 1009.8
20260903061129 77 285 0.0 0.0 0.00 0.00 0.00 89 1009.8
20260903061027 77 285 0.0 0.0 0.00 0.00 0.00 89 1009.8
20260903060700 77 285 0.0 0.0 0.00 0.00 0.00 89 1009.8
20260903060553 77 285 0.0 0.0 0.00 0.00 0.00 89 1009.8
20260903060449 77 285 0.0 0.0 0.00 0.00 0.00 89 1009.9
20260903060344 77 285 0.0 0.0 0.00 0.00 0.00 89 1009.9
20260903060242 77 285 0.0 0.0 0.00 0.00 0.00 89 1009.9
20260903060139 77 285 0.0 0.0 0.00 0.00 0.00 89 1009.9
20260903060038 77 285 0.0 0.0 0.00 0.00 0.00 89 1009.9
20260903055931 77 285 0.0 0.0 0.00 0.00 0.00 89 1009.9
20260903055822 77 285 0.0 0.0 0.00 0.00 0.00 89 1010.0
20260903055456 77 285 0.0 0.0 0.00 0.00 0.00 88 1010.0
20260903055351 77 285 0.0 0.0 0.00 0.00 0.00 88 1010.0
20260903055243 77 285 0.0 0.0 0.00 0.00 0.00 88 1010.0
20260903055141 77 285 0.0 0.0 0.00 0.00 0.00 88 1010.0
20260903055036 77 285 0.0 0.0 0.00 0.00 0.00 88 1010.0
20260903054933 77 285 0.0 0.0 0.00 0.00 0.00 88 1010.0
20260903053905 78 285 0.0 0.0 0.00 0.00 0.00 86 1009.9
20260903053759 78 285 0.0 0.0 0.00 0.00 0.00 86 1010.0
20260903053655 78 285 0.0 0.0 0.00 0.00 0.00 86 1010.0
20260903053551 78 285 0.0 0.0 0.00 0.00 0.00 86 1010.0
20260903053447 78 285 0.0 0.0 0.00 0.00 0.00 86 1010.0
20260903053341 78 285 0.0 0.0 0.00 0.00 0.00 86 1010.0
20260903053237 78 285 0.0 0.0 0.00 0.00 0.00 86 1010.0
20260903052912 78 285 0.0 0.0 0.00 0.00 0.00 86 1010.0
20260903052808 78 285 0.0 0.0 0.00 0.00 0.00 86 1010.0
20260903052705 78 285 0.0 0.0 0.00 0.00 0.00 85 1010.0
20260903052557 79 285 0.0 0.0 0.00 0.00 0.00 85 1010.1
20260903052451 79 285 0.0 0.0 0.00 0.00 0.00 85 1010.0
20260903052346 79 285 0.0 0.0 0.00 0.00 0.00 85 1010.0
20260903052238 79 285 0.0 0.0 0.00 0.00 0.00 85 1010.0
20260903052133 79 285 0.0 0.0 0.00 0.00 0.00 85 1010.0
20260903052027 79 285 0.0 0.0 0.00 0.00 0.00 85 1010.0
20260903051659 79 285 0.0 0.0 0.00 0.00 0.00 84 1010.0
20260903051115 80 285 0.0 0.0 0.00 0.00 0.00 83 1010.0
20260903051010 80 285 0.0 0.0 0.00 0.00 0.00 83 1010.0
20260903050907 80 285 0.0 0.0 0.00 0.00 0.00 83 1010.0
20260903050542 80 285 0.0 0.0 0.00 0.00 0.00 83 1010.0
20260903050434 80 285 0.0 0.0 0.00 0.00 0.00 82 1009.9
20260903050330 80 285 0.0 0.0 0.00 0.00 0.00 82 1009.9
20260903050228 80 285 0.0 0.0 0.00 0.00 0.00 82 1009.9
20260903050125 80 285 0.0 0.0 0.00 0.00 0.00 82 1009.9
20260903050019 80 285 0.0 0.0 0.00 0.00 0.00 82 1009.8
20260903045914 80 285 0.0 0.0 0.00 0.00 0.00 82 1009.9
20260903045809 80 285 0.0 0.0 0.00 0.00 0.00 82 1009.9
20260903045707 81 285 0.0 0.0 0.00 0.00 0.00 82 1009.9
20260903045601 81 285 0.0 0.0 0.00 0.00 0.00 82 1009.9
20260903045454 81 285 0.0 0.0 0.00 0.00 0.00 82 1009.9
20260903045349 81 285 0.0 0.0 0.00 0.00 0.00 82 1009.9
20260903045242 81 285 0.0 0.0 0.00 0.00 0.00 82 1009.9
20260903045136 81 285 0.0 0.0 0.00 0.00 0.00 82 1009.9
20260903045030 81 285 0.0 0.0 0.00 0.00 0.00 82 1009.9
20260903044925 81 285 0.0 0.0 0.00 0.00 0.00 81 1009.9
20260903044822 81 285 0.0 0.0 0.00 0.00 0.00 81 1009.9
20260903044719 81 285 0.0 0.0 0.00 0.00 0.00 81 1009.9
20260903044613 81 285 0.0 0.0 0.00 0.00 0.00 81 1009.9
20260903044508 81 285 0.0 0.0 0.00 0.00 0.00 81 1009.9
20260903044402 81 285 0.0 0.0 0.00 0.00 0.00 81 1009.8
20260903044255 81 285 0.0 0.0 0.00 0.00 0.00 81 1009.7
20260903043932 81 285 0.0 0.0 0.00 0.00 0.00 81 1009.7
20260903043830 81 285 0.0 0.0 0.00 0.00 0.00 81 1009.7
20260903043725 81 285 0.0 0.0 0.00 0.00 0.00 81 1009.7
20260903043617 81 285 0.0 0.0 0.00 0.00 0.00 80 1009.7
20260903043249 82 285 0.0 0.0 0.00 0.00 0.00 80 1009.7
20260903042922 82 285 0.0 0.0 0.00 0.00 0.00 80 1009.7
20260903042817 82 286 0.0 0.0 0.00 0.00 0.00 80 1009.7
20260903042709 82 286 0.0 0.0 0.00 0.00 0.00 80 1009.7
20260903042121 82 286 0.0 0.0 0.00 0.00 0.00 80 1009.7
20260903042019 82 286 0.0 0.0 0.00 0.00 0.00 80 1009.7
20260903041917 82 286 0.0 0.0 0.00 0.00 0.00 80 1009.7
20260903041812 82 286 0.0 0.0 0.00 0.00 0.00 80 1009.7
20260903041708 82 286 0.0 0.0 0.00 0.00 0.00 80 1009.7
20260903041346 82 288 0.0 0.0 0.00 0.00 0.00 80 1009.7
20260903041239 82 288 0.0 0.0 0.00 0.00 0.00 79 1009.7
20260903041137 82 289 0.0 0.0 0.00 0.00 0.00 79 1009.7
20260903041034 82 290 0.0 0.0 0.00 0.00 0.00 80 1009.7
20260903040928 82 290 0.0 0.0 0.00 0.00 0.00 80 1009.7
20260903040825 82 290 0.0 0.0 0.00 0.00 0.00 79 1009.6
20260903040720 82 290 0.0 0.0 0.00 0.00 0.00 79 1009.6
20260903040617 82 290 0.0 0.0 0.00 0.00 0.00 79 1009.6
20260903040515 82 207 0.0 0.0 0.00 0.00 0.00 79 1009.6
20260903040412 82 273 0.0 0.0 0.00 0.00 0.00 79 1009.6
20260903040305 82 273 0.0 0.0 0.00 0.00 0.00 79 1009.5
20260903040159 82 273 0.0 0.0 0.00 0.00 0.00 80 1009.6
20260903040052 82 275 0.0 0.0 0.00 0.00 0.00 80 1009.6
20260903035948 82 275 0.0 0.0 0.00 0.00 0.00 80 1009.5
20260903035843 82 278 0.0 0.0 0.00 0.00 0.00 80 1009.6
20260903035737 82 277 0.0 0.0 0.00 0.00 0.00 80 1009.6
20260903035631 82 279 0.0 0.0 0.00 0.00 0.00 79 1009.5
20260903035527 82 267 0.0 0.0 0.00 0.00 0.00 79 1009.5
20260903035421 82 259 0.0 0.0 0.00 0.00 0.00 79 1009.5
20260903035316 82 266 0.0 0.0 0.00 0.00 0.00 79 1009.5
20260903035213 82 266 0.0 0.0 0.00 0.00 0.00 79 1009.5
20260903035109 82 266 0.0 0.0 0.00 0.00 0.00 79 1009.5
20260903034743 82 269 0.0 0.0 0.00 0.00 0.00 79 1009.3
20260903034641 82 269 0.0 0.0 0.00 0.00 0.00 79 1009.3
20260903034534 82 269 0.0 0.0 0.00 0.00 0.00 79 1009.3
20260903034428 82 270 0.0 0.0 0.00 0.00 0.00 79 1009.3
20260903034321 82 270 0.0 4.0 0.00 0.00 0.00 79 1009.3
20260903034216 82 273 0.0 4.0 0.00 0.00 0.00 79 1009.2
20260903034110 82 259 0.0 3.0 0.00 0.00 0.00 79 1009.2
20260903034003 82 263 0.0 0.0 0.00 0.00 0.00 79 1009.2
20260903033900 82 263 0.0 0.0 0.00 0.00 0.00 79 1009.2
20260903033758 82 263 0.0 0.0 0.00 0.00 0.00 79 1009.1
20260903033651 82 263 0.0 0.0 0.00 0.00 0.00 79 1009.1
20260903033549 82 263 0.0 0.0 0.00 0.00 0.00 79 1009.1
20260903033442 82 234 0.0 8.0 0.00 0.00 0.00 79 1009.1
20260903033337 82 248 0.0 8.0 0.00 0.00 0.00 79 1009.1
20260903033234 82 277 0.0 8.0 0.00 0.00 0.00 79 1009.0
20260903033127 82 238 0.0 1.0 0.00 0.00 0.00 79 1009.1
20260903033021 82 244 0.0 0.0 0.00 0.00 0.00 79 1009.0
20260903032914 82 236 0.0 0.0 0.00 0.00 0.00 79 1009.1
20260903032806 82 236 0.0 0.0 0.00 0.00 0.00 79 1009.0
20260903032442 82 206 0.0 5.0 0.00 0.00 0.00 79 1009.0
20260903032336 82 235 0.0 5.0 0.00 0.00 0.00 79 1009.0
20260903032228 82 231 0.0 5.0 0.00 0.00 0.00 79 1009.1
20260903032126 82 218 0.0 5.0 0.00 0.00 0.00 80 1009.1
20260903032024 82 219 0.0 5.0 0.00 0.00 0.00 80 1009.0
20260903031920 82 220 0.0 5.0 0.00 0.00 0.00 80 1009.0
20260903031816 82 244 0.0 4.0 0.00 0.00 0.00 80 1009.0
20260903031452 82 254 0.0 0.0 0.00 0.00 0.00 80 1009.0
20260903031347 82 202 0.0 0.0 0.00 0.00 0.00 80 1009.0
20260903031242 82 221 0.0 0.0 0.00 0.00 0.00 80 1009.0
20260903031140 82 202 0.0 0.0 0.00 0.00 0.00 80 1009.1
20260903031033 82 223 0.0 0.0 0.00 0.00 0.00 80 1009.0
20260903030927 82 229 0.0 0.0 0.00 0.00 0.00 80 1009.0
20260903030823 82 229 0.0 0.0 0.00 0.00 0.00 80 1009.0
20260903030721 82 229 0.0 0.0 0.00 0.00 0.00 80 1009.1
20260903030613 82 251 0.0 0.0 0.00 0.00 0.00 80 1009.0
20260903030508 82 218 0.0 0.0 0.00 0.00 0.00 80 1009.0
20260903030401 82 202 0.0 0.0 0.00 0.00 0.00 80 1009.0
20260903030254 82 212 0.0 0.0 0.00 0.00 0.00 80 1009.0
20260903030149 82 202 0.0 0.0 0.00 0.00 0.00 80 1009.0
20260903030047 82 202 0.0 0.0 0.00 0.00 0.00 80 1009.0
20260903025940 81 192 0.0 0.0 0.00 0.00 0.00 80 1009.0
20260903025833 81 190 0.0 0.0 0.00 0.00 0.00 80 1009.0
20260903025726 81 263 0.0 0.0 0.00 0.00 0.00 81 1009.0
20260903025624 81 263 0.0 0.0 0.00 0.00 0.00 81 1009.1
20260903025520 81 260 0.0 0.0 0.00 0.00 0.00 81 1009.0
20260903025413 81 217 0.0 0.0 0.00 0.00 0.00 81 1009.1
20260903025308 81 217 0.0 0.0 0.00 0.00 0.00 81 1009.1
20260903025205 81 216 0.0 0.0 0.00 0.00 0.00 81 1009.1
20260903025058 81 240 0.0 0.0 0.00 0.00 0.00 81 1009.1
20260903024950 81 240 0.0 0.0 0.00 0.00 0.00 81 1009.1
20260903024627 81 180 0.0 0.0 0.00 0.00 0.00 82 1009.1
20260903024524 81 207 0.0 0.0 0.00 0.00 0.00 82 1009.1
20260903024420 81 209 0.0 0.0 0.00 0.00 0.00 82 1009.0
20260903024317 80 248 0.0 0.0 0.00 0.00 0.00 82 1009.0
20260903024212 80 250 0.0 0.0 0.00 0.00 0.00 82 1009.0
20260903023849 80 246 0.0 0.0 0.00 0.00 0.00 83 1008.9
20260903023743 80 246 0.0 0.0 0.00 0.00 0.00 83 1008.8
20260903023640 80 215 0.0 0.0 0.00 0.00 0.00 83 1008.8
20260903023535 80 175 0.0 0.0 0.00 0.00 0.00 83 1008.8
20260903023428 80 175 0.0 0.0 0.00 0.00 0.00 83 1008.8
20260903023326 79 175 0.0 0.0 0.00 0.00 0.00 84 1008.8
20260903023219 79 175 0.0 0.0 0.00 0.00 0.00 84 1008.8
20260903023112 79 176 0.0 0.0 0.00 0.00 0.00 84 1008.9
20260903023006 79 207 0.0 0.0 0.00 0.00 0.00 84 1008.9
20260903022903 79 207 0.0 0.0 0.00 0.00 0.00 84 1008.9
20260903022758 79 206 0.0 0.0 0.00 0.00 0.00 84 1009.0
20260903022429 79 200 0.0 0.0 0.00 0.00 0.00 84 1009.1
20260903022327 79 200 0.0 0.0 0.00 0.00 0.00 84 1009.1
20260903022224 79 200 0.0 0.0 0.00 0.00 0.00 84 1009.1
20260903021900 79 200 0.0 0.0 0.00 0.00 0.00 84 1009.3
20260903021752 79 200 0.0 0.0 0.00 0.00 0.00 84 1009.3
20260903021645 79 200 0.0 0.0 0.00 0.00 0.00 84 1009.3
20260903021540 79 200 0.0 0.0 0.00 0.00 0.00 84 1009.4
20260903021433 79 200 0.0 0.0 0.00 0.00 0.00 84 1009.4
20260903021326 79 200 0.0 0.0 0.00 0.00 0.00 84 1009.4
20260903021223 79 200 0.0 0.0 0.00 0.00 0.00 84 1009.5
20260903021119 79 200 0.0 0.0 0.00 0.00 0.00 84 1009.5
20260903020536 79 200 0.0 0.0 0.00 0.00 0.00 83 1009.7
20260903020430 79 200 0.0 0.0 0.00 0.00 0.00 83 1009.6
20260903020109 79 200 0.0 0.0 0.00 0.00 0.00 83 1009.7
20260903015743 79 200 0.0 0.0 0.00 0.00 0.00 83 1009.7
20260903015636 79 200 0.0 0.0 0.00 0.00 0.00 83 1009.6
20260903015532 79 200 0.0 0.0 0.00 0.00 0.00 83 1009.7
20260903015424 79 200 0.0 0.0 0.00 0.00 0.00 83 1009.6
20260903015317 79 200 0.0 0.0 0.00 0.00 0.00 82 1009.7
20260903014955 80 200 0.0 0.0 0.00 0.00 0.00 82 1009.6
20260903014850 80 200 0.0 0.0 0.00 0.00 0.00 82 1009.6
20260903014743 80 200 0.0 0.0 0.00 0.00 0.00 82 1009.6
20260903014635 80 200 0.0 0.0 0.00 0.00 0.00 82 1009.5
20260903014530 80 200 0.0 0.0 0.00 0.00 0.00 82 1009.5
20260903014426 80 200 0.0 0.0 0.00 0.00 0.00 82 1009.5
20260903014324 80 200 0.0 0.0 0.00 0.00 0.00 82 1009.5
20260903014217 80 200 0.0 0.0 0.00 0.00 0.00 82 1009.5
20260903014115 80 200 0.0 0.0 0.00 0.00 0.00 81 1009.6
20260903014012 80 200 0.0 0.0 0.00 0.00 0.00 81 1009.5
20260903013647 80 200 0.0 0.0 0.00 0.00 0.00 81 1009.5
20260903013544 80 200 0.0 0.0 0.00 0.00 0.00 81 1009.5
20260903013439 80 200 0.0 0.0 0.00 0.00 0.00 81 1009.5
20260903013336 80 200 0.0 0.0 0.00 0.00 0.00 81 1009.6
20260903013232 80 200 0.0 0.0 0.00 0.00 0.00 81 1009.5
20260903012907 80 200 0.0 0.0 0.00 0.00 0.00 81 1009.5
20260903012801 80 200 0.0 0.0 0.00 0.00 0.00 81 1009.5
20260903012432 80 200 0.0 0.0 0.00 0.00 0.00 81 1009.5
20260903011626 81 200 0.0 0.0 0.00 0.00 0.00 80 1009.5
20260903011522 81 200 0.0 0.0 0.00 0.00 0.00 80 1009.5
20260903011156 81 200 0.0 0.0 0.00 0.00 0.00 79 1009.4
20260903010829 81 200 0.0 0.0 0.00 0.00 0.00 79 1009.4
20260903010724 81 200 0.0 0.0 0.00 0.00 0.00 79 1009.4
20260903010358 81 200 0.0 0.0 0.00 0.00 0.00 78 1009.4
20260903010254 82 200 0.0 0.0 0.00 0.00 0.00 78 1009.3
20260903010149 82 200 0.0 0.0 0.00 0.00 0.00 78 1009.3
20260903010045 82 200 0.0 0.0 0.00 0.00 0.00 78 1009.3
20260903005939 82 200 0.0 0.0 0.00 0.00 0.00 77 1009.3
20260903005616 82 200 0.0 0.0 0.00 0.00 0.00 77 1009.3
20260903005513 82 200 0.0 0.0 0.00 0.00 0.00 76 1009.2
20260903005407 82 200 0.0 0.0 0.00 0.00 0.00 76 1009.2
20260903005306 82 200 0.0 0.0 0.00 0.00 0.00 76 1009.2
20260903004937 83 200 0.0 0.0 0.00 0.00 0.00 75 1009.2
20260903004834 83 200 0.0 0.0 0.00 0.00 0.00 75 1009.2
20260903004506 83 200 0.0 0.0 0.00 0.00 0.00 74 1009.1
20260903004403 83 200 0.0 0.0 0.00 0.00 0.00 74 1009.1
20260903004039 84 200 0.0 0.0 0.00 0.00 0.00 73 1009.1
20260903003711 84 200 0.0 0.0 0.00 0.00 0.00 73 1009.1
20260903003608 84 200 0.0 0.0 0.00 0.00 0.00 73 1009.0
20260903003506 84 200 0.0 0.0 0.00 0.00 0.00 73 1009.0
20260903003403 84 200 0.0 0.0 0.00 0.00 0.00 72 1009.0
20260903003257 84 200 0.0 0.0 0.00 0.00 0.00 72 1008.9
20260903003152 84 200 0.0 0.0 0.00 0.00 0.00 72 1008.9
20260903003047 84 200 0.0 0.0 0.00 0.00 0.00 72 1008.9
20260903002942 84 200 0.0 0.0 0.00 0.00 0.00 71 1008.9
20260903002838 85 200 0.0 0.0 0.00 0.00 0.00 71 1008.8
20260903002256 85 200 0.0 0.0 0.00 0.00 0.00 70 1008.8
20260903002151 85 200 0.0 0.0 0.00 0.00 0.00 70 1008.8
20260903002045 85 200 0.0 0.0 0.00 0.00 0.00 70 1008.8
20260903001941 85 200 0.0 0.0 0.00 0.00 0.00 70 1008.8
20260903001835 85 200 0.0 0.0 0.00 0.00 0.00 70 1008.8
20260903001512 86 200 0.0 0.0 0.00 0.00 0.00 70 1008.9
20260903001411 86 200 0.0 0.0 0.00 0.00 0.00 69 1008.9
20260903001304 86 200 0.0 0.0 0.00 0.00 0.00 69 1008.8
20260903001159 86 200 0.0 0.0 0.00 0.00 0.00 69 1008.8
20260903001057 86 200 0.0 0.0 0.00 0.00 0.00 68 1008.8
20260903000953 86 200 0.0 0.0 0.00 0.00 0.00 69 1008.8
20260903000850 86 200 0.0 0.0 0.00 0.00 0.00 68 1008.9
20260903000746 86 200 0.0 0.0 0.00 0.00 0.00 68 1008.9
20260903000417 87 200 0.0 0.0 0.00 0.00 0.00 67 1008.9
20260903000052 87 213 0.0 0.0 0.00 0.00 0.00 67 1009.0
20260902235950 87 213 0.0 0.0 0.00 0.00 0.00 67 1008.9
20260902235626 87 213 0.0 0.0 0.00 0.00 0.00 66 1009.0
20260902235520 88 213 0.0 0.0 0.00 0.00 0.00 66 1009.0
20260902235418 88 213 0.0 0.0 0.00 0.00 0.00 66 1009.0
20260902235315 88 213 0.0 0.0 0.00 0.00 0.00 66 1009.0
20260902235209 88 213 0.0 0.0 0.00 0.00 0.00 66 1009.0
20260902234628 88 215 0.0 0.0 0.00 0.00 0.00 65 1008.9
20260902234300 89 216 0.0 0.0 0.00 0.00 0.00 65 1009.0
20260902234153 89 216 0.0 0.0 0.00 0.00 0.00 64 1008.9
20260902234049 89 216 0.0 0.0 0.00 0.00 0.00 64 1008.9
20260902233725 89 216 0.0 0.0 0.00 0.00 0.00 64 1008.9
20260902233618 89 216 0.0 0.0 0.00 0.00 0.00 64 1008.9
20260902233515 89 216 0.0 0.0 0.00 0.00 0.00 64 1009.0
20260902233413 89 216 0.0 0.0 0.00 0.00 0.00 64 1008.9